Simultaneous Nadir Overpasses (SNOs) Predictions

Prediction of SNOs near equator between AQUA and NPP Satellite Orbit:

Table of predicted SNOs near equator for the next 14.0 days since TLE Epoch: 8/11/2017
Index Date (AQUA) Time (AQUA) AQUA Lat,Lon Date (NPP) Time (NPP) NPP Lat,Lon Distance(km) Time Diff (sec)
1 08/12/2017 07:52:31 5.83, 84.86 08/12/2017 07:42:37 5.81, 84.78 8.63 594
2 08/12/2017 08:40:39 -1.32,-106.53 08/12/2017 08:32:00 -1.25,-106.87 38.39 519
3 08/12/2017 09:28:53 -3.30, 62.08 08/12/2017 09:21:30 -3.41, 61.47 68.26 443
4 08/12/2017 10:17:01 7.80,-129.30 08/12/2017 10:10:53 7.98,-130.17 97.13 368
5 08/15/2017 00:08:32 4.15,-158.91 08/14/2017 23:59:06 4.14,-159.08 19.41 566
6 08/15/2017 00:56:40 0.36, 9.71 08/15/2017 00:48:29 0.43, 9.27 49.03 491
7 08/15/2017 01:44:55 -4.92, 178.30 08/15/2017 01:37:59 -5.09, 177.61 78.63 416
8 08/17/2017 15:42:39 -29.97, 143.42 08/17/2017 15:32:39 -30.20, 143.07 42.33 600
9 08/17/2017 16:24:34 2.53, -42.68 08/17/2017 16:15:35 2.47, -42.94 29.77 539
10 08/17/2017 17:12:42 1.98, 125.93 08/17/2017 17:04:58 2.10, 125.41 59.48 464
11 08/17/2017 18:00:56 -6.60, -65.46 08/17/2017 17:54:28 -6.76, -66.25 88.85 388
12 08/20/2017 07:52:21 -5.47, -95.05 08/20/2017 07:42:34 -5.45, -95.14 10.37 587
13 08/20/2017 08:40:35 0.86, 73.55 08/20/2017 08:32:04 0.80, 73.20 40.41 511
14 08/20/2017 09:28:43 3.65,-117.83 08/20/2017 09:21:27 3.77,-118.45 69.97 436
15 08/20/2017 10:16:57 -8.27, 50.78 08/20/2017 10:10:57 -8.43, 49.90 99.00 360
16 08/23/2017 00:08:20 -3.74, 21.20 08/22/2017 23:59:01 -3.72, 21.01 21.00 559
17 08/23/2017 00:56:35 -0.80,-170.21 08/23/2017 00:48:31 -0.93,-170.65 51.05 484
18 08/23/2017 01:44:42 5.38, -1.58 08/23/2017 01:37:54 5.50, -2.30 80.36 408
19 08/25/2017 15:39:47 19.53, -34.04 08/25/2017 15:29:47 19.56, -34.22 19.02 600
20 08/25/2017 16:24:21 -2.08, 137.43 08/25/2017 16:15:30 -2.05, 137.15 31.78 531
21 08/25/2017 17:12:36 -2.46, -53.98 08/25/2017 17:05:00 -2.59, -54.52 61.57 456
22 08/25/2017 18:00:44 6.98, 114.64 08/25/2017 17:54:23 7.17, 113.84 90.61 381




NCC Satellite Simultaneous Nadir Overpasses (SNOs) Prediction Service
